Tracking 33744 objects as of 12-Apr-2026
HD Live streaming from Space Station
objects crossing your sky now

STARLINK-31814

Track STARLINK-31814 now!
10-day predictions
STARLINK-31814 is classified as:


NORAD ID: 59802
Int'l Code: 2024-093W
Perigee: 489.4 km
Apogee: 491.0 km
Inclination: 43.0 °
Period: 94.3 minutes
Semi major axis: 6861 km
RCS: Unknown
Launch date: May 18, 2024
Source: United States (US)
Launch site: AIR FORCE EASTERN TEST RANGE (AFETR)
Your satellite tracking list
Your tracking list is empty




NASA's NSSDC Master Catalog

Two Line Element Set (TLE):
1 59802U 24093W   26101.46915019  .00001471  00000-0  62961-4 0  9998
2 59802  43.0015  24.1846 0001161 267.3375  92.7344 15.27577961107700
Source of the keplerian elements: AFSPC